MSC3609 HEGN-EPKT

Flight info

Callsign MSC3609
Flight time N/A
Altitude 34000
Route SOLOX1B SOLOX V603 GIDID DCT KAPIT L677 CVO L617 NOZ L551 GOMVA/N0457F360 L551 ANTAR UN133 ATFIR N133 LOMOS DCT PADGU DCT GESBA DCT ARCAZ DCT KOVEK DCT REDSI/N0447F370 DCT MEBAN
Aircraft A320/M-SDE3FGHIRWY/LB1

Departure

Time N/A
Airport Hurghada International Airport (HEGN)

Arrival

Time 2026-04-27 20:45
Airport Katowice Wojciech Korfanty International Airport (EPKT)
Time Latitude Longitude Altitude Speed Heading
2026-04-27 17:12 29.57366 32.17728 33975 ft 394 kts 301°
2026-04-27 17:13 29.60759 32.12742 33973 ft 395 kts 301°
2026-04-27 17:13 29.64138 32.07770 33975 ft 395 kts 301°
2026-04-27 17:14 29.67376 32.02998 33974 ft 394 kts 301°
2026-04-27 17:14 29.70740 31.98038 33974 ft 395 kts 301°
2026-04-27 17:15 29.74109 31.93064 33974 ft 395 kts 301°
2026-04-27 17:15 29.77310 31.88329 33974 ft 394 kts 301°
2026-04-27 17:16 29.80628 31.83291 33974 ft 394 kts 300°
2026-04-27 17:16 29.83919 31.78253 33970 ft 398 kts 304°
2026-04-27 17:17 29.87871 31.73879 33970 ft 388 kts 309°
2026-04-27 17:17 29.91844 31.69730 33973 ft 385 kts 309°
2026-04-27 17:18 29.97757 31.63519 33974 ft 385 kts 309°
2026-04-27 17:18 30.01706 31.59358 33973 ft 384 kts 309°
2026-04-27 17:19 30.05630 31.55219 33973 ft 385 kts 309°
2026-04-27 17:19 30.09593 31.51034 33974 ft 384 kts 309°
2026-04-27 17:20 30.13530 31.46896 33974 ft 385 kts 309°
2026-04-27 17:20 30.17486 31.42732 33975 ft 384 kts 309°
2026-04-27 17:21 30.21417 31.38579 33974 ft 384 kts 309°
2026-04-27 17:21 30.25343 31.34417 33977 ft 384 kts 309°
2026-04-27 17:22 30.29267 31.30227 33975 ft 384 kts 309°
2026-04-27 17:22 30.33181 31.26052 33973 ft 384 kts 309°
2026-04-27 17:23 30.37110 31.21862 33973 ft 384 kts 309°
2026-04-27 17:23 30.41019 31.17692 33974 ft 384 kts 309°
2026-04-27 17:24 30.44963 31.13481 33973 ft 385 kts 308°
2026-04-27 17:24 30.48882 31.09294 33974 ft 386 kts 308°
2026-04-27 17:25 30.52843 31.05056 33973 ft 387 kts 308°
2026-04-27 17:25 30.56780 31.00840 33974 ft 387 kts 308°
2026-04-27 17:26 30.60758 30.96574 33974 ft 388 kts 308°
2026-04-27 17:26 30.64727 30.92312 33973 ft 388 kts 308°
2026-04-27 17:27 30.68681 30.88061 33974 ft 389 kts 308°
2026-04-27 17:27 30.72660 30.83779 33974 ft 388 kts 308°
2026-04-27 17:28 30.76614 30.79519 33975 ft 388 kts 308°
2026-04-27 17:29 30.82538 30.73130 33973 ft 389 kts 308°
2026-04-27 17:29 30.86516 30.68830 33973 ft 388 kts 308°
2026-04-27 17:30 30.90471 30.64555 33974 ft 388 kts 308°
2026-04-27 17:30 30.96368 30.58175 33975 ft 384 kts 307°
2026-04-27 17:31 31.00267 30.53946 33975 ft 382 kts 306°
2026-04-27 17:31 31.04129 30.49751 33975 ft 380 kts 306°
2026-04-27 17:32 31.09925 30.43437 33975 ft 379 kts 306°
2026-04-27 17:33 31.13785 30.39258 33974 ft 379 kts 306°
2026-04-27 17:33 31.17622 30.35094 33972 ft 379 kts 306°
2026-04-27 17:34 31.21478 30.30876 33974 ft 379 kts 305°
2026-04-27 17:34 31.25294 30.26694 33974 ft 378 kts 305°
2026-04-27 17:35 31.29123 30.22498 33973 ft 378 kts 305°
2026-04-27 17:35 31.32956 30.18295 33973 ft 378 kts 305°
2026-04-27 17:36 31.36781 30.14098 33973 ft 379 kts 305°
2026-04-27 17:36 31.40607 30.09896 33973 ft 378 kts 305°
2026-04-27 17:37 31.44427 30.05695 33973 ft 378 kts 305°
2026-04-27 17:37 31.48261 30.01473 33974 ft 378 kts 305°
2026-04-27 17:38 31.52070 29.97277 33974 ft 378 kts 305°
2026-04-27 17:38 31.55916 29.93032 33974 ft 379 kts 305°
2026-04-27 17:39 31.59735 29.88812 33974 ft 379 kts 305°
2026-04-27 17:39 31.63545 29.84598 33973 ft 379 kts 305°
2026-04-27 17:40 31.67363 29.80369 33974 ft 378 kts 305°
2026-04-27 17:40 31.71200 29.76115 33973 ft 378 kts 305°
2026-04-27 17:41 31.75003 29.71895 33974 ft 378 kts 305°
2026-04-27 17:41 31.78832 29.67640 33990 ft 378 kts 305°
2026-04-27 17:42 31.82643 29.63401 34010 ft 378 kts 305°
2026-04-27 17:42 31.86454 29.59154 34020 ft 377 kts 305°
2026-04-27 17:43 31.90284 29.54886 34025 ft 378 kts 305°
2026-04-27 17:43 31.94104 29.50619 34028 ft 377 kts 305°
2026-04-27 17:44 31.98016 29.46487 34029 ft 384 kts 309°
2026-04-27 17:44 32.02358 29.42716 34029 ft 395 kts 314°
2026-04-27 17:45 32.07153 29.39362 34422 ft 403 kts 319°
2026-04-27 17:45 32.09604 29.37799 34802 ft 399 kts 319°
2026-04-27 17:45 32.12046 29.36252 35097 ft 397 kts 319°
2026-04-27 17:45 32.14449 29.34733 35310 ft 396 kts 319°
2026-04-27 17:46 32.16895 29.33169 35530 ft 396 kts 318°
2026-04-27 17:46 32.19291 29.31632 35770 ft 395 kts 318°
2026-04-27 17:46 32.21706 29.30086 35976 ft 395 kts 318°
2026-04-27 17:47 32.26539 29.26987 36022 ft 395 kts 319°
2026-04-27 17:47 32.31335 29.23912 36026 ft 395 kts 318°
2026-04-27 17:48 32.36177 29.20802 36027 ft 394 kts 318°
2026-04-27 17:48 32.40972 29.17720 36028 ft 395 kts 318°
2026-04-27 17:49 32.45791 29.14616 36030 ft 394 kts 319°
2026-04-27 17:49 32.50600 29.11516 36029 ft 395 kts 318°
2026-04-27 17:50 32.55406 29.08414 36030 ft 394 kts 318°
2026-04-27 17:50 32.62638 29.03738 36030 ft 395 kts 318°
2026-04-27 17:51 32.67446 29.00628 36030 ft 395 kts 318°
2026-04-27 17:51 32.72261 28.97507 36034 ft 395 kts 318°
2026-04-27 17:52 32.77076 28.94384 36036 ft 395 kts 318°
2026-04-27 17:52 32.81089 28.91776 36038 ft 395 kts 318°
2026-04-27 17:53 32.86697 28.88129 36042 ft 395 kts 317°
2026-04-27 17:53 32.91549 28.84968 36045 ft 396 kts 317°
2026-04-27 17:54 32.96342 28.81842 36049 ft 396 kts 317°
2026-04-27 17:54 33.01206 28.78644 36050 ft 400 kts 319°
2026-04-27 17:55 33.06099 28.75424 36052 ft 406 kts 322°
2026-04-27 17:55 33.11066 28.72167 36053 ft 413 kts 324°
2026-04-27 17:56 33.16154 28.68868 36056 ft 417 kts 325°
2026-04-27 17:56 33.21273 28.65544 36057 ft 417 kts 325°
2026-04-27 17:57 33.26327 28.62235 36058 ft 417 kts 325°
2026-04-27 17:57 33.31417 28.58891 36057 ft 417 kts 325°
2026-04-27 17:58 33.36487 28.55551 36051 ft 417 kts 325°
2026-04-27 17:58 33.41578 28.52191 36039 ft 417 kts 325°
2026-04-27 17:59 33.46621 28.48857 36025 ft 417 kts 325°
2026-04-27 17:59 33.51705 28.45494 36011 ft 417 kts 325°
2026-04-27 18:00 33.56768 28.42139 36006 ft 417 kts 325°
2026-04-27 18:00 33.61858 28.38761 36006 ft 418 kts 325°
2026-04-27 18:01 33.66940 28.35385 36005 ft 418 kts 325°
2026-04-27 18:01 33.71978 28.32015 36005 ft 417 kts 324°
2026-04-27 18:02 33.77067 28.28611 36005 ft 417 kts 324°
2026-04-27 18:02 33.82124 28.25227 36004 ft 417 kts 324°
2026-04-27 18:03 33.87146 28.21834 36004 ft 417 kts 324°
2026-04-27 18:03 33.92209 28.18409 36004 ft 417 kts 324°
2026-04-27 18:04 33.97268 28.14986 36003 ft 417 kts 324°
2026-04-27 18:04 34.02300 28.11577 36005 ft 417 kts 324°
2026-04-27 18:05 34.07341 28.08158 36003 ft 417 kts 324°
2026-04-27 18:05 34.12380 28.04743 36004 ft 417 kts 324°
2026-04-27 18:06 34.17441 28.01321 36004 ft 417 kts 324°
2026-04-27 18:06 34.22464 27.97908 36006 ft 417 kts 324°
2026-04-27 18:07 34.27488 27.94483 36005 ft 417 kts 324°
2026-04-27 18:07 34.32550 27.91024 36005 ft 417 kts 324°
2026-04-27 18:08 34.37577 27.87586 36004 ft 417 kts 324°
2026-04-27 18:08 34.42606 27.84140 36004 ft 416 kts 324°
2026-04-27 18:09 34.47646 27.80682 36004 ft 416 kts 324°
2026-04-27 18:09 34.52685 27.77221 36005 ft 417 kts 324°
2026-04-27 18:10 34.57702 27.73764 36005 ft 417 kts 324°
2026-04-27 18:10 34.62735 27.70288 36005 ft 416 kts 324°
2026-04-27 18:11 34.67785 27.66792 36004 ft 417 kts 324°
2026-04-27 18:11 34.72801 27.63314 36005 ft 417 kts 324°
2026-04-27 18:12 34.77819 27.59830 36005 ft 417 kts 324°
2026-04-27 18:12 34.82838 27.56340 36004 ft 417 kts 324°
2026-04-27 18:13 34.87861 27.52842 36005 ft 417 kts 324°
2026-04-27 18:13 34.92899 27.49320 36003 ft 419 kts 325°
2026-04-27 18:14 34.97940 27.45791 36004 ft 421 kts 326°
2026-04-27 18:14 35.03056 27.42213 36003 ft 424 kts 327°
2026-04-27 18:15 35.08157 27.38649 36004 ft 425 kts 328°
2026-04-27 18:15 35.13286 27.35072 36005 ft 426 kts 328°
2026-04-27 18:16 35.18412 27.31471 36005 ft 425 kts 327°
2026-04-27 18:16 35.23498 27.27884 36005 ft 425 kts 327°
2026-04-27 18:17 35.28636 27.24262 36005 ft 425 kts 327°
2026-04-27 18:17 35.33740 27.20663 36005 ft 426 kts 327°
2026-04-27 18:18 35.38859 27.17047 36005 ft 426 kts 327°
2026-04-27 18:18 35.44113 27.13609 36005 ft 428 kts 332°
2026-04-27 18:19 35.49503 27.10562 36005 ft 428 kts 332°
2026-04-27 18:19 35.54891 27.07542 36005 ft 427 kts 332°
2026-04-27 18:20 35.60249 27.04528 36005 ft 427 kts 332°
2026-04-27 18:20 35.65690 27.01459 36005 ft 427 kts 332°
2026-04-27 18:21 35.71100 26.98402 36005 ft 427 kts 332°
2026-04-27 18:21 35.76471 26.95361 36005 ft 426 kts 332°
2026-04-27 18:22 35.81863 26.92306 36005 ft 426 kts 332°
2026-04-27 18:22 35.87212 26.89265 36005 ft 426 kts 331°
2026-04-27 18:23 35.92587 26.86189 36005 ft 425 kts 331°
2026-04-27 18:23 35.97926 26.83127 36005 ft 425 kts 331°
2026-04-27 18:24 36.03302 26.80043 36005 ft 425 kts 331°
2026-04-27 18:24 36.08650 26.76970 36005 ft 425 kts 331°
2026-04-27 18:25 36.13977 26.73916 36005 ft 425 kts 331°
2026-04-27 18:25 36.19347 26.70835 36005 ft 425 kts 331°
2026-04-27 18:26 36.24703 26.67744 36005 ft 425 kts 331°
2026-04-27 18:26 36.30074 26.64640 36005 ft 425 kts 331°
2026-04-27 18:27 36.35436 26.61538 36005 ft 425 kts 331°
2026-04-27 18:27 36.40770 26.58444 36005 ft 425 kts 331°
2026-04-27 18:28 36.46105 26.55342 36005 ft 425 kts 331°
2026-04-27 18:28 36.51464 26.52222 36005 ft 425 kts 331°
2026-04-27 18:29 36.56817 26.49103 36005 ft 425 kts 331°
2026-04-27 18:29 36.62149 26.45990 36005 ft 425 kts 331°
2026-04-27 18:30 36.67509 26.42852 36005 ft 425 kts 331°
2026-04-27 18:30 36.72844 26.39723 36005 ft 425 kts 331°
2026-04-27 18:31 36.78184 26.36586 36005 ft 425 kts 331°
2026-04-27 18:31 36.83494 26.33454 36009 ft 425 kts 330°
2026-04-27 18:32 36.88816 26.30296 36014 ft 425 kts 330°
2026-04-27 18:32 36.94159 26.27138 36020 ft 425 kts 330°
2026-04-27 18:33 36.99502 26.23968 36027 ft 425 kts 330°
2026-04-27 18:33 37.04759 26.20756 36034 ft 424 kts 330°
2026-04-27 18:34 37.10051 26.17515 36041 ft 424 kts 330°
2026-04-27 18:34 37.15361 26.14283 36048 ft 425 kts 330°
2026-04-27 18:35 37.20641 26.11063 36053 ft 424 kts 330°
2026-04-27 18:35 37.25928 26.07825 36056 ft 424 kts 330°
2026-04-27 18:36 37.31224 26.04574 36057 ft 424 kts 330°
2026-04-27 18:36 37.36521 26.01315 36057 ft 424 kts 330°
2026-04-27 18:37 37.41835 25.98040 36055 ft 424 kts 330°
2026-04-27 18:37 37.47106 25.94787 36054 ft 424 kts 330°
2026-04-27 18:38 37.52399 25.91515 36055 ft 424 kts 330°
2026-04-27 18:38 37.57693 25.88237 36057 ft 424 kts 330°
2026-04-27 18:39 37.62992 25.84951 36058 ft 424 kts 330°
2026-04-27 18:39 37.68280 25.81666 36058 ft 424 kts 330°
2026-04-27 18:40 37.73586 25.78364 36058 ft 424 kts 330°
2026-04-27 18:40 37.78863 25.75073 36058 ft 424 kts 330°
2026-04-27 18:41 37.84182 25.71752 36058 ft 424 kts 330°
2026-04-27 18:41 37.89450 25.68457 36058 ft 424 kts 330°
2026-04-27 18:42 37.93833 25.65711 36062 ft 424 kts 330°
2026-04-27 18:42 37.99968 25.61862 36072 ft 424 kts 330°
2026-04-27 18:43 38.05316 25.58501 36074 ft 424 kts 330°
2026-04-27 18:43 38.10583 25.55186 36073 ft 424 kts 330°
2026-04-27 18:44 38.15863 25.51876 36072 ft 424 kts 330°
2026-04-27 18:44 38.21148 25.48550 36069 ft 424 kts 330°
2026-04-27 18:45 38.26402 25.45231 36066 ft 424 kts 330°
2026-04-27 18:45 38.31668 25.41896 36062 ft 424 kts 330°
2026-04-27 18:46 38.36945 25.38547 36061 ft 424 kts 330°
2026-04-27 18:46 38.42238 25.35183 36060 ft 424 kts 330°
2026-04-27 18:47 38.47517 25.31800 36060 ft 424 kts 330°
2026-04-27 18:47 38.52798 25.28413 36060 ft 424 kts 330°
2026-04-27 18:48 38.58076 25.25034 36060 ft 424 kts 330°
2026-04-27 18:48 38.63341 25.21663 36060 ft 424 kts 330°
2026-04-27 18:49 38.68585 25.18301 36059 ft 424 kts 330°
2026-04-27 18:49 38.73899 25.14890 36062 ft 425 kts 330°
2026-04-27 18:50 38.79189 25.11488 36074 ft 427 kts 330°
2026-04-27 18:50 38.84520 25.08055 36094 ft 429 kts 330°
2026-04-27 18:51 38.89832 25.04627 36114 ft 430 kts 329°
2026-04-27 18:51 38.95182 25.01172 36128 ft 431 kts 329°
2026-04-27 18:52 39.00512 24.97725 36134 ft 431 kts 329°
2026-04-27 18:53 39.08557 24.92505 36138 ft 431 kts 329°
2026-04-27 18:53 39.13915 24.89120 36138 ft 431 kts 330°
2026-04-27 18:54 39.19310 24.85808 36139 ft 431 kts 330°
2026-04-27 18:54 39.24727 24.82461 36139 ft 431 kts 330°
2026-04-27 18:55 39.30110 24.79116 36138 ft 431 kts 330°
2026-04-27 18:55 39.35529 24.75742 36138 ft 431 kts 330°
2026-04-27 18:56 39.40934 24.72368 36139 ft 431 kts 330°
2026-04-27 18:56 39.46300 24.69014 36139 ft 431 kts 330°
2026-04-27 18:57 39.51698 24.65634 36139 ft 431 kts 330°
2026-04-27 18:57 39.57100 24.62249 36139 ft 431 kts 330°
2026-04-27 18:58 39.62471 24.58877 36139 ft 431 kts 330°
2026-04-27 18:58 39.67867 24.55482 36139 ft 431 kts 330°
2026-04-27 18:59 39.73262 24.52081 36139 ft 431 kts 330°
2026-04-27 18:59 39.78645 24.48683 36139 ft 431 kts 330°
2026-04-27 19:00 39.84023 24.45281 36139 ft 431 kts 330°
2026-04-27 19:00 39.89401 24.41874 36139 ft 431 kts 330°
2026-04-27 19:01 39.94780 24.38460 36141 ft 431 kts 330°
2026-04-27 19:01 40.00134 24.35054 36144 ft 431 kts 330°
2026-04-27 19:02 40.05517 24.31605 36151 ft 430 kts 329°
2026-04-27 19:02 40.10891 24.28159 36156 ft 430 kts 329°
2026-04-27 19:03 40.16286 24.24725 36161 ft 430 kts 329°
2026-04-27 19:03 40.21640 24.21306 36165 ft 431 kts 329°
2026-04-27 19:04 40.27013 24.17863 36166 ft 431 kts 329°
2026-04-27 19:04 40.32349 24.14435 36167 ft 430 kts 329°
2026-04-27 19:05 40.37720 24.10978 36167 ft 430 kts 329°
2026-04-27 19:05 40.43094 24.07513 36167 ft 431 kts 329°
2026-04-27 19:06 40.48451 24.04052 36167 ft 431 kts 329°
2026-04-27 19:06 40.53799 24.00603 36166 ft 431 kts 330°
2026-04-27 19:07 40.59288 23.97655 36166 ft 435 kts 337°
2026-04-27 19:07 40.65129 23.95502 36168 ft 438 kts 343°
2026-04-27 19:08 40.71156 23.94014 36171 ft 440 kts 346°
2026-04-27 19:08 40.77133 23.92618 36172 ft 439 kts 346°
2026-04-27 19:09 40.83150 23.91196 36174 ft 440 kts 346°
2026-04-27 19:09 40.89147 23.89768 36175 ft 440 kts 346°
2026-04-27 19:10 40.95182 23.88324 36173 ft 439 kts 346°
2026-04-27 19:10 41.01170 23.86889 36173 ft 438 kts 346°
2026-04-27 19:11 41.07112 23.85464 36170 ft 434 kts 346°
2026-04-27 19:11 41.13036 23.84040 36171 ft 430 kts 346°
2026-04-27 19:12 41.18880 23.82640 36167 ft 429 kts 346°
2026-04-27 19:12 41.24742 23.81227 36174 ft 429 kts 346°
2026-04-27 19:13 41.30622 23.79805 36183 ft 429 kts 346°
2026-04-27 19:13 41.36468 23.78391 36189 ft 429 kts 346°
2026-04-27 19:14 41.42385 23.77171 36193 ft 430 kts 349°
2026-04-27 19:14 41.48315 23.76327 36193 ft 431 kts 350°
2026-04-27 19:15 41.54281 23.75494 36193 ft 431 kts 350°
2026-04-27 19:15 41.60212 23.74655 36193 ft 430 kts 350°
2026-04-27 19:16 41.66171 23.73806 36192 ft 431 kts 350°
2026-04-27 19:16 41.72104 23.72960 36192 ft 431 kts 350°
2026-04-27 19:17 41.78059 23.72106 36193 ft 431 kts 350°
2026-04-27 19:17 41.84000 23.71257 36192 ft 431 kts 350°
2026-04-27 19:18 41.89930 23.70409 36191 ft 431 kts 350°
2026-04-27 19:18 41.95882 23.69551 36192 ft 431 kts 350°
2026-04-27 19:19 42.01801 23.68698 36193 ft 430 kts 350°
2026-04-27 19:19 42.07751 23.67840 36192 ft 430 kts 350°
2026-04-27 19:20 42.13685 23.66983 36192 ft 431 kts 350°
2026-04-27 19:20 42.19616 23.66130 36193 ft 430 kts 350°
2026-04-27 19:21 42.25561 23.65265 36193 ft 430 kts 350°
2026-04-27 19:21 42.31467 23.64083 36192 ft 428 kts 344°
2026-04-27 19:22 42.37213 23.62204 36194 ft 426 kts 342°
2026-04-27 19:22 42.42926 23.60214 36193 ft 426 kts 342°
2026-04-27 19:23 42.48684 23.58212 36193 ft 426 kts 342°
2026-04-27 19:23 42.54404 23.56224 36192 ft 426 kts 342°
2026-04-27 19:24 42.60152 23.54227 36194 ft 426 kts 342°
2026-04-27 19:24 42.65857 23.52240 36194 ft 426 kts 342°
2026-04-27 19:25 42.71606 23.50236 36193 ft 427 kts 342°
2026-04-27 19:25 42.77350 23.48229 36192 ft 426 kts 342°
2026-04-27 19:26 42.83089 23.46219 36190 ft 426 kts 342°
2026-04-27 19:26 42.88797 23.44215 36192 ft 426 kts 342°
2026-04-27 19:27 42.94534 23.42196 36190 ft 430 kts 342°
2026-04-27 19:27 43.00333 23.40150 36191 ft 433 kts 342°
2026-04-27 19:28 43.06200 23.38079 36193 ft 437 kts 343°
2026-04-27 19:28 43.12070 23.36011 36192 ft 437 kts 343°
2026-04-27 19:29 43.17945 23.33942 36193 ft 438 kts 343°
2026-04-27 19:29 43.23915 23.32409 36194 ft 440 kts 350°
2026-04-27 19:30 43.30018 23.31602 36193 ft 441 kts 352°
2026-04-27 19:30 43.36097 23.30883 36193 ft 441 kts 352°
2026-04-27 19:31 43.42197 23.30124 36193 ft 441 kts 352°
2026-04-27 19:31 43.48272 23.29366 36191 ft 441 kts 352°
2026-04-27 19:32 43.54369 23.28605 36192 ft 441 kts 352°
2026-04-27 19:32 43.60469 23.27849 36193 ft 441 kts 352°
2026-04-27 19:33 43.66532 23.27102 36193 ft 441 kts 352°
2026-04-27 19:33 43.72630 23.26346 36192 ft 441 kts 352°
2026-04-27 19:34 43.78679 23.25310 36192 ft 438 kts 347°
2026-04-27 19:34 43.84598 23.23318 36192 ft 436 kts 340°
2026-04-27 19:35 43.90230 23.20396 36192 ft 434 kts 333°
2026-04-27 19:35 43.95648 23.16829 36192 ft 432 kts 331°
2026-04-27 19:36 44.01049 23.13189 36194 ft 433 kts 331°
2026-04-27 19:36 44.06466 23.09551 36193 ft 433 kts 331°
2026-04-27 19:37 44.11872 23.05923 36190 ft 433 kts 331°
2026-04-27 19:37 44.17294 23.02298 36194 ft 432 kts 331°
2026-04-27 19:38 44.22683 22.98677 36196 ft 430 kts 331°
2026-04-27 19:38 44.28035 22.95068 36194 ft 427 kts 331°
2026-04-27 19:39 44.33352 22.91472 36195 ft 424 kts 332°
2026-04-27 19:39 44.38612 22.87906 36192 ft 422 kts 332°
2026-04-27 19:40 44.43875 22.84332 36193 ft 420 kts 332°
2026-04-27 19:40 44.49095 22.80777 36193 ft 417 kts 332°
2026-04-27 19:41 44.54299 22.77231 36191 ft 417 kts 333°
2026-04-27 19:41 44.59483 22.73691 36193 ft 416 kts 332°
2026-04-27 19:42 44.64695 22.70124 36189 ft 416 kts 332°
2026-04-27 19:42 44.69875 22.66571 36187 ft 416 kts 332°
2026-04-27 19:43 44.75066 22.63002 36180 ft 416 kts 332°
2026-04-27 19:43 44.80248 22.59416 36172 ft 416 kts 332°
2026-04-27 19:44 44.85427 22.55775 36170 ft 416 kts 332°
2026-04-27 19:44 44.90591 22.52135 36170 ft 416 kts 332°
2026-04-27 19:45 44.95726 22.48512 36166 ft 417 kts 332°
2026-04-27 19:45 45.00889 22.44860 36170 ft 415 kts 332°
2026-04-27 19:46 45.06056 22.41200 36170 ft 412 kts 332°
2026-04-27 19:46 45.11146 22.37586 36170 ft 410 kts 333°
2026-04-27 19:47 45.16213 22.34004 36170 ft 408 kts 332°
2026-04-27 19:47 45.21236 22.30413 36168 ft 408 kts 332°
2026-04-27 19:48 45.26283 22.26802 36168 ft 407 kts 332°
2026-04-27 19:48 45.31341 22.23181 36167 ft 407 kts 332°
2026-04-27 19:49 45.36389 22.19561 36168 ft 408 kts 332°
2026-04-27 19:49 45.41438 22.15937 36168 ft 407 kts 332°
2026-04-27 19:50 45.46498 22.12295 36168 ft 408 kts 332°
2026-04-27 19:50 45.51533 22.08665 36169 ft 407 kts 332°
2026-04-27 19:51 45.56591 22.05009 36167 ft 408 kts 332°
2026-04-27 19:51 45.61656 22.01344 36168 ft 408 kts 332°
2026-04-27 19:52 45.66608 21.97753 36170 ft 408 kts 332°
2026-04-27 19:52 45.71670 21.94074 36167 ft 408 kts 332°
2026-04-27 19:53 45.79225 21.88569 36168 ft 408 kts 332°
2026-04-27 19:53 45.84262 21.84888 36170 ft 409 kts 332°
2026-04-27 19:54 45.89308 21.81194 36168 ft 408 kts 333°
2026-04-27 19:54 45.94507 21.77874 36169 ft 409 kts 338°
2026-04-27 19:55 45.99826 21.75071 36167 ft 409 kts 339°
2026-04-27 19:55 46.05171 21.72293 36168 ft 409 kts 339°
2026-04-27 19:56 46.10493 21.69517 36168 ft 409 kts 339°
2026-04-27 19:56 46.15857 21.66723 36169 ft 410 kts 339°
2026-04-27 19:57 46.21167 21.63946 36169 ft 409 kts 339°
2026-04-27 19:57 46.26540 21.61125 36169 ft 410 kts 339°
2026-04-27 19:58 46.31863 21.58319 36170 ft 409 kts 339°
2026-04-27 19:58 46.37203 21.55499 36168 ft 409 kts 339°
2026-04-27 19:59 46.42536 21.52675 36169 ft 409 kts 339°
2026-04-27 19:59 46.47847 21.49859 36168 ft 409 kts 339°
2026-04-27 20:00 46.53178 21.47021 36168 ft 409 kts 338°
2026-04-27 20:00 46.58375 21.43737 36170 ft 408 kts 333°
2026-04-27 20:01 46.63441 21.40097 36169 ft 408 kts 333°
2026-04-27 20:01 46.68529 21.36414 36167 ft 408 kts 333°
2026-04-27 20:02 46.73588 21.32738 36167 ft 408 kts 332°
2026-04-27 20:02 46.78667 21.29032 36170 ft 408 kts 332°
2026-04-27 20:03 46.83720 21.25349 36174 ft 408 kts 332°
2026-04-27 20:03 46.88810 21.21638 36176 ft 408 kts 332°
2026-04-27 20:04 46.93850 21.17957 36177 ft 407 kts 333°
2026-04-27 20:04 46.98060 21.14874 36181 ft 405 kts 333°
2026-04-27 20:05 47.03901 21.10593 36185 ft 403 kts 333°
2026-04-27 20:05 47.08886 21.06934 36186 ft 401 kts 333°
2026-04-27 20:06 47.13850 21.03295 36189 ft 399 kts 333°
2026-04-27 20:06 47.18803 20.99660 36188 ft 400 kts 333°
2026-04-27 20:07 47.23795 20.95976 36184 ft 401 kts 333°
2026-04-27 20:07 47.28764 20.92299 36181 ft 404 kts 333°
2026-04-27 20:08 47.33781 20.88577 36177 ft 405 kts 333°
2026-04-27 20:08 47.38799 20.84844 36172 ft 406 kts 333°
2026-04-27 20:09 47.43864 20.81070 36170 ft 406 kts 333°
2026-04-27 20:09 47.48882 20.77318 36174 ft 406 kts 333°
2026-04-27 20:10 47.53888 20.73573 36176 ft 406 kts 333°
2026-04-27 20:10 47.58942 20.69779 36178 ft 406 kts 333°
2026-04-27 20:11 47.63955 20.66011 36175 ft 406 kts 333°
2026-04-27 20:11 47.68978 20.62226 36172 ft 406 kts 333°
2026-04-27 20:12 47.73175 20.59056 36170 ft 406 kts 333°
2026-04-27 20:12 47.79029 20.54627 36168 ft 406 kts 333°
2026-04-27 20:13 47.84057 20.50857 36167 ft 406 kts 335°
2026-04-27 20:13 47.89194 20.47591 36166 ft 405 kts 338°
2026-04-27 20:14 47.94434 20.44419 36169 ft 405 kts 338°
2026-04-27 20:14 47.99617 20.41274 36168 ft 405 kts 338°
2026-04-27 20:15 48.04834 20.38097 36170 ft 405 kts 338°
2026-04-27 20:15 48.10018 20.34933 36172 ft 405 kts 337°
2026-04-27 20:16 48.15210 20.31748 36179 ft 405 kts 337°
2026-04-27 20:16 48.20423 20.28546 36188 ft 405 kts 337°
2026-04-27 20:17 48.25623 20.25348 36189 ft 404 kts 337°
2026-04-27 20:17 48.29949 20.22683 36191 ft 404 kts 337°
2026-04-27 20:18 48.35999 20.18949 36192 ft 404 kts 337°
2026-04-27 20:18 48.41159 20.15756 36193 ft 404 kts 337°
2026-04-27 20:19 48.46352 20.12538 36193 ft 404 kts 337°
2026-04-27 20:19 48.51544 20.09313 36193 ft 404 kts 337°
2026-04-27 20:20 48.56735 20.06079 36193 ft 404 kts 337°
2026-04-27 20:20 48.61911 20.02851 36194 ft 404 kts 337°
2026-04-27 20:21 48.67093 19.99611 36193 ft 404 kts 337°
2026-04-27 20:21 48.72268 19.96365 36193 ft 404 kts 337°
2026-04-27 20:22 48.77441 19.93114 36192 ft 404 kts 337°
2026-04-27 20:22 48.82621 19.89854 36192 ft 404 kts 337°
2026-04-27 20:23 48.87805 19.86581 36192 ft 404 kts 337°
2026-04-27 20:23 48.92965 19.83320 36192 ft 403 kts 337°
2026-04-27 20:24 48.98122 19.80051 36191 ft 403 kts 337°
2026-04-27 20:24 49.03256 19.76888 36172 ft 401 kts 341°
2026-04-27 20:25 49.05836 19.75883 35789 ft 394 kts 348°
2026-04-27 20:25 49.08585 19.75290 34589 ft 399 kts 351°
2026-04-27 20:25 49.11353 19.74831 32851 ft 412 kts 352°
2026-04-27 20:25 49.14205 19.74382 30926 ft 426 kts 351°
2026-04-27 20:26 49.17098 19.73918 29017 ft 436 kts 351°
2026-04-27 20:26 49.20118 19.73421 27243 ft 450 kts 351°
2026-04-27 20:26 49.23245 19.72900 26303 ft 449 kts 351°
2026-04-27 20:26 49.26279 19.72393 25625 ft 444 kts 351°
2026-04-27 20:27 49.29359 19.71876 24981 ft 439 kts 351°
2026-04-27 20:27 49.32355 19.71370 24368 ft 434 kts 351°
2026-04-27 20:27 49.35350 19.70861 23764 ft 429 kts 351°
2026-04-27 20:27 49.38289 19.70360 23178 ft 425 kts 351°
2026-04-27 20:28 49.41188 19.69864 22597 ft 421 kts 351°
2026-04-27 20:28 49.44045 19.69375 22025 ft 417 kts 351°
2026-04-27 20:28 49.46909 19.68884 21457 ft 413 kts 351°
2026-04-27 20:28 49.48795 19.68560 21078 ft 411 kts 351°
2026-04-27 20:29 49.52535 19.67917 20336 ft 406 kts 351°
2026-04-27 20:29 49.55342 19.67434 19775 ft 402 kts 351°
2026-04-27 20:29 49.58105 19.66957 19224 ft 399 kts 351°
2026-04-27 20:29 49.60855 19.66483 18676 ft 396 kts 351°
2026-04-27 20:30 49.63562 19.66015 18134 ft 393 kts 351°
2026-04-27 20:30 49.66244 19.65551 17594 ft 390 kts 351°
2026-04-27 20:30 49.68897 19.65092 17094 ft 386 kts 351°
2026-04-27 20:30 49.71565 19.64631 16577 ft 383 kts 351°
2026-04-27 20:31 49.74179 19.64177 16061 ft 381 kts 351°
2026-04-27 20:31 49.76793 19.63724 15546 ft 378 kts 351°
2026-04-27 20:31 49.79395 19.63272 15030 ft 376 kts 351°
2026-04-27 20:31 49.81947 19.62828 14525 ft 373 kts 351°
2026-04-27 20:32 49.84536 19.62377 14012 ft 371 kts 351°
2026-04-27 20:32 49.87080 19.61933 13509 ft 369 kts 351°
2026-04-27 20:32 49.89603 19.61493 13010 ft 366 kts 351°
2026-04-27 20:32 49.92104 19.61056 12498 ft 364 kts 351°
2026-04-27 20:33 49.94590 19.60621 11998 ft 362 kts 352°
2026-04-27 20:33 49.97116 19.60180 11509 ft 359 kts 352°
2026-04-27 20:33 49.99571 19.59752 11066 ft 355 kts 351°
2026-04-27 20:33 50.01996 19.59328 10637 ft 351 kts 351°
2026-04-27 20:34 50.04409 19.58905 10365 ft 340 kts 351°
2026-04-27 20:34 50.06683 19.58508 10278 ft 325 kts 351°
2026-04-27 20:34 50.08878 19.58125 10181 ft 310 kts 351°
2026-04-27 20:34 50.10974 19.57758 10097 ft 296 kts 351°
2026-04-27 20:35 50.12974 19.57411 10026 ft 283 kts 351°
2026-04-27 20:35 50.14898 19.57074 9755 ft 278 kts 351°
2026-04-27 20:35 50.16810 19.56735 9441 ft 276 kts 351°
2026-04-27 20:35 50.18705 19.56398 9149 ft 272 kts 351°
2026-04-27 20:36 50.20572 19.56068 8905 ft 266 kts 351°
2026-04-27 20:36 50.22392 19.55747 8674 ft 260 kts 351°
2026-04-27 20:36 50.24156 19.55435 8437 ft 254 kts 351°
2026-04-27 20:36 50.25895 19.55126 8169 ft 250 kts 351°
2026-04-27 20:37 50.27603 19.54823 7878 ft 247 kts 352°
2026-04-27 20:37 50.29283 19.54524 7614 ft 243 kts 352°
2026-04-27 20:37 50.30956 19.54227 7349 ft 239 kts 352°
2026-04-27 20:37 50.32585 19.53937 7054 ft 238 kts 352°
2026-04-27 20:38 50.34236 19.53642 6744 ft 236 kts 352°
2026-04-27 20:38 50.35841 19.53356 6456 ft 234 kts 352°
2026-04-27 20:38 50.37447 19.53070 6216 ft 230 kts 352°
2026-04-27 20:38 50.39044 19.52785 5919 ft 228 kts 352°
2026-04-27 20:39 50.40610 19.52506 5615 ft 227 kts 353°
2026-04-27 20:39 50.42100 19.52240 5444 ft 225 kts 353°
2026-04-27 20:39 50.43678 19.51959 5415 ft 225 kts 353°
2026-04-27 20:39 50.45209 19.51664 5334 ft 221 kts 347°
2026-04-27 20:40 50.46570 19.50655 5197 ft 220 kts 317°
2026-04-27 20:40 50.47368 19.48640 5048 ft 221 kts 285°
2026-04-27 20:40 50.47549 19.46235 4944 ft 219 kts 274°
2026-04-27 20:40 50.47586 19.43882 4661 ft 219 kts 272°
2026-04-27 20:41 50.47591 19.41470 4305 ft 221 kts 271°
2026-04-27 20:41 50.47586 19.39072 4122 ft 218 kts 271°
2026-04-27 20:41 50.47580 19.36666 4059 ft 220 kts 271°
2026-04-27 20:41 50.47575 19.34270 3944 ft 220 kts 270°
2026-04-27 20:42 50.47574 19.31868 3691 ft 219 kts 270°
2026-04-27 20:42 50.47573 19.29491 3391 ft 213 kts 270°
2026-04-27 20:42 50.47574 19.27224 3108 ft 202 kts 270°
2026-04-27 20:42 50.47575 19.25081 2900 ft 190 kts 270°
2026-04-27 20:43 50.47576 19.23096 2685 ft 177 kts 270°
2026-04-27 20:43 50.47578 19.21211 2428 ft 166 kts 270°
2026-04-27 20:43 50.47580 19.19479 2185 ft 152 kts 270°
2026-04-27 20:43 50.47582 19.17892 1959 ft 139 kts 270°
2026-04-27 20:44 50.47584 19.16420 1787 ft 136 kts 270°
2026-04-27 20:44 50.47586 19.14917 1622 ft 135 kts 270°
2026-04-27 20:44 50.47588 19.13456 1449 ft 135 kts 270°
2026-04-27 20:44 50.47592 19.11971 1278 ft 135 kts 270°
2026-04-27 20:45 50.47596 19.10516 1090 ft 134 kts 270°
2026-04-27 20:45 50.47601 19.09090 986 ft 121 kts 270°
2026-04-27 20:45 50.47601 19.07997 980 ft 75 kts 269°
2026-04-27 20:45 50.47598 19.07393 978 ft 39 kts 269°
2026-04-27 20:46 50.47567 19.07093 975 ft 25 kts 246°
2026-04-27 20:46 50.47487 19.06853 974 ft 25 kts 240°
2026-04-27 20:46 50.47404 19.06641 975 ft 17 kts 214°
2026-04-27 20:46 50.47293 19.06627 976 ft 15 kts 180°
2026-04-27 20:47 50.47238 19.06729 978 ft 13 kts 90°
2026-04-27 20:47 50.47237 19.06878 978 ft 13 kts 90°
2026-04-27 20:47 50.47236 19.07029 979 ft 11 kts 90°
2026-04-27 20:47 50.47234 19.07068 980 ft 1 kts 126°
2026-04-27 20:48 50.47210 19.07079 980 ft 9 kts 174°
2026-04-27 20:48 50.47166 19.07077 981 ft 9 kts 182°
2026-04-27 20:48 50.47150 19.07077 981 ft 0 kts 181°